,,Stat5,,Stat1,,Stat2,,Stat3,,Stat4,,Wind1,,Wind1,
time,status,PA1M_AVG,status,PR1M_SUM,status,RH1M_AVG,status,SR1M_AVG,status,TA1M_AVG,status,W1dAve1m,status,W1sAve1m,
2002-07-23, 07:16:00,VALID,920.212,VALID,0,VALID,97.5499,VALID,44.4898,VALID,18.7345,VALID,116,VALID,0.824436,
2002-07-23, 07:17:00,VALID,920.212,VALID,0,VALID,97.5499,VALID,44.4898,VALID,18.7345,VALID,116,VALID,0.824436,
2002-07-23, 07:18:00,VALID,920.21,VALID,0,VALID,97.4914,VALID,47.2237,VALID,18.7499,VALID,104,VALID,0.558699,
2002-07-23, 07:20:00,INVALID,0,VALID,0,VALID,97.3449,VALID,51.5946,VALID,18.8077,VALID,110,VALID,0.620361,
2002-07-23, 07:21:00,VALID,920.201,VALID,0,VALID,97.2892,VALID,52.7934,VALID,18.842,VALID,110,VALID,0.638569,
2002-07-23, 07:22:00,VALID,920.205,VALID,0,VALID,97.232,VALID,53.9141,VALID,18.8581,VALID,113,VALID,0.479567,
2002-07-23, 08:37:00,INVALID,0,VALID,0,VALID,89.7717,VALID,471.3,VALID,20.3054,VALID,151,VALID,2.25104,
2002-07-23, 08:38:00,VALID,920.804,VALID,0,VALID,90.434,VALID,482.578,VALID,20.3958,VALID,142,VALID,1.9248,
2002-07-23, 08:39:00,VALID,920.797,VALID,0,VALID,90.8358,VALID,397.368,VALID,20.5734,VALID,153,VALID,1.18921,
2002-07-23, 08:40:00,VALID,920.799,VALID,0,VALID,89.1471,VALID,292.817,VALID,20.7054,VALID,155,VALID,1.62458,
2002-07-23, 08:41:00,VALID,920.802,VALID,0,VALID,87.9175,VALID,232.111,VALID,20.7469,VALID,136,VALID,1.92929,
2002-07-23, 08:42:00,VALID,920.791,VALID,0,VALID,88.4325,VALID,217.117,VALID,20.7571,VALID,144,VALID,1.97476,
2002-07-23, 08:43:00,VALID,920.804,VALID,0,VALID,88.7288,VALID,219.223,VALID,20.7342,VALID,135,VALID,1.6104,
2002-07-23, 08:44:00,VALID,920.804,VALID,0,VALID,88.6092,VALID,227.034,VALID,20.7307,VALID,154,VALID,1.74399,
2002-07-23, 08:45:00,VALID,920.821,VALID,0,VALID,88.51,VALID,242.707,VALID,20.7213,VALID,149,VALID,1.91348,
2002-07-23, 08:46:00,VALID,920.816,VALID,0,VALID,89.1675,VALID,278.095,VALID,20.7369,VALID,137,VALID,1.22796,
2002-07-23, 08:47:00,VALID,920.812,VALID,0,VALID,89.0428,VALID,324.487,VALID,20.8015,VALID,143,VALID,1.53516,
2002-07-23, 08:48:00,VALID,920.802,VALID,0,VALID,87.33,VALID,409,VALID,20.8602,VALID,147,VALID,2.05325,
2002-07-23, 08:49:00,VALID,920.795,VALID,0,VALID,87.2778,VALID,483.784,VALID,20.9537,VALID,148,VALID,1.54564,
2002-07-23, 08:50:00,VALID,920.78,VALID,0,VALID,86.4793,VALID,527.476,VALID,21.0921,VALID,145,VALID,1.8345,
2002-07-23, 08:51:00,VALID,920.758,VALID,0,VALID,86.3992,VALID,525.693,VALID,21.2665,VALID,145,VALID,1.59607,
2002-07-23, 08:52:00,VALID,920.755,VALID,0,VALID,85.3641,VALID,517.593,VALID,21.4669,VALID,148,VALID,2.02159,
2002-07-23, 08:53:00,VALID,920.718,VALID,0,VALID,84.4689,VALID,498.285,VALID,21.6476,VALID,151,VALID,1.85076,
2002-07-23, 08:54:00,VALID,920.707,VALID,0,VALID,83.463,VALID,450.349,VALID,21.7537,VALID,153,VALID,1.91947,
2002-07-23, 08:55:00,VALID,920.709,VALID,0,VALID,83.3817,VALID,361.318,VALID,21.8442,VALID,150,VALID,1.6369,
2002-07-23, 08:56:00,VALID,920.684,VALID,0,VALID,81.6485,VALID,451.792,VALID,21.883,VALID,157,VALID,1.53147,
2002-07-23, 08:57:00,VALID,920.671,VALID,0,VALID,82.4941,VALID,498.999,VALID,21.9635,VALID,169,VALID,1.31229,
2002-07-23, 08:58:00,VALID,920.654,VALID,0,VALID,81.2123,VALID,515.215,VALID,22.0537,VALID,145,VALID,1.76953,
2002-07-23, 08:59:00,VALID,920.664,VALID,0,VALID,81.1513,VALID,522.806,VALID,22.141,VALID,152,VALID,1.87023,
2002-07-23, 09:00:00,VALID,920.649,VALID,0,VALID,80.7507,VALID,534.03,VALID,22.208,VALID,140,VALID,1.63492,
2002-07-23, 09:01:00,VALID,920.641,VALID,0,VALID,80.8613,VALID,519.223,VALID,22.295,VALID,159,VALID,1.41756,
2002-07-23, 09:02:00,VALID,920.638,VALID,0,VALID,81.0038,VALID,477.093,VALID,22.4278,VALID,124,VALID,1.19872,
2002-07-23, 09:03:00,VALID,920.629,VALID,0,VALID,80.944,VALID,543.998,VALID,22.5878,VALID,146,VALID,0.704814,
2002-07-23, 09:04:00,VALID,920.625,VALID,0,VALID,78.3321,VALID,534.132,VALID,22.7615,VALID,149,VALID,1.47002,
2002-07-23, 09:05:00,VALID,920.625,VALID,0,VALID,77.3784,VALID,529.343,VALID,22.8197,VALID,150,VALID,1.4299,
2002-07-23, 09:06:00,VALID,920.598,VALID,0,VALID,77.5119,VALID,520.378,VALID,22.8679,VALID,150,VALID,1.1875,
2002-07-23, 09:07:00,VALID,920.588,VALID,0,VALID,77.4318,VALID,466.752,VALID,22.9535,VALID,145,VALID,0.860609,
2002-07-23, 09:08:00,VALID,920.588,VALID,0,VALID,78.1515,VALID,498.829,VALID,23.0434,VALID,143,VALID,0.919207,
2002-07-23, 09:09:00,VALID,920.574,VALID,0,VALID,78.0117,VALID,503.533,VALID,23.1789,VALID,140,VALID,0.920025,
2002-07-23, 09:10:00,VALID,920.579,VALID,0,VALID,78.0117,VALID,499.865,VALID,23.3114,VALID,148,VALID,1.20456,
2002-07-23, 09:11:00,VALID,920.581,VALID,0,VALID,77.1953,VALID,494.448,VALID,23.3567,VALID,179,VALID,1.40929,
2002-07-23, 09:12:00,VALID,920.584,VALID,0,VALID,76.6193,VALID,450.23,VALID,23.4307,VALID,157,VALID,1.12377,
2002-07-23, 09:13:00,VALID,920.575,VALID,0,VALID,76.5124,VALID,406.402,VALID,23.4972,VALID,134,VALID,0.942411,
